www.pogodaiklimat.ru

Погода и климат >> Архив погоды >> Пакистан >> Сиби


ПОГОДА в Сиби

  • Прогноз погоды в Сиби
  • Монитор погоды в Сиби

АРХИВ ПОГОДЫ в Сиби

Время (UTC), дата Ветер
(напр.,м/с)
 
Видим.   Явления Облачность Т
(С)
Тd
(С)
f
(%)
Тe
(С)
Тes
(С)
Комфортность P
(гПа)
Po
(гПа)
Тmin
(С)
Tmax
(С)
R
(мм)
R24
(мм)
S
(см)
03 17.02 штиль 0 10 км ясно +12.8 +4.3 56 +13 +14 1016.2 1000.1
06 17.02 штиль 0 10 км ясно +20.0 +6.1 40 +21 +35 комфорт 1016.1 1000.0
09 17.02 штиль 0 10 км ясно +22.8 +3.5 28 +23 +37 комфорт 1013.2 997.6
12 17.02 штиль 0 10 км ясно +23.9 +6.3 32 +24 +25 комфорт 1008.7 993.2 +25.1
15 17.02 штиль 0 4000 м {морось} ясно +21.7 +7.5 40 +23 +23 комфорт 1008.8 1000.0
18 17.02 штиль 0 4000 м 5/5 1200 м
[Sc]
+18.3 +7.8 50 +18 +18 1009.0 1000.0
21 17.02 штиль 0 4000 м 5/5 1200 м
[Sc]
+16.7 +6.3 50 +17 +17 1008.7 992.9
00 18.02 штиль 0 4000 м 5/5 1200 м
[Sc]
+13.9 +5.6 57 +14 +14 1007.4 991.3
03 18.02 СЗ 1 10 км 5/5 1200 м
[Sc]
+13.9 +5.6 57 +14 +15 1008.1 992.0
06 18.02 штиль 0 10 км 4/4 1200 м
[Sc]
+21.1 +7.5 41 +22 +31 комфорт 1009.4 1000.0
09 18.02 ЮВ 1 10 км ясно +23.9 +10.6 43 +25 +38 комфорт 1007.3 1000.0
12 18.02 СЗ 1 10 км ясно +24.4 +7.6 34 +25 +26 комфорт 1006.4 991.0 +25.5
15 18.02 СЗ 2 4000 м ясно +20.0 -0.4 25 +21 +21 комфорт 1007.7 992.1
18 18.02 СЗ 2 4000 м ясно +19.4 -1.4 24 +20 +20 1008.5 1000.0
21 18.02 СЗ 1 4000 м ясно +16.7 +2.0 37 +18 +18 1008.1 1000.0
00 19.02 штиль 0 4000 м 5/5 1200 м
[Sc]
+14.4 +3.5 48 +14 +14 1008.2 992.2
03 19.02 штиль 0 10 км 5/5 1200 м
[Sc]
+14.4 +4.9 53 +14 +15 1011.7 995.7
06 19.02 ЮЗ 1 10 км 5/5 1200 м
[Sc]
+18.3 +10.1 59 +20 +26 1013.7 1000.0
09 19.02 СЗ 1 10 км 5/5 1200 м
[Sc]
+21.7 +8.3 42 +23 +29 комфорт 1012.3 1000.0
12 19.02 СЗ 1 10 км 9/5 1200 м
[Sc As trans]
+21.7 +8.3 42 +23 +23 комфорт 1011.8 996.2 +22.5
15 19.02 СЗ 1 4000 м 9/5 1200 м
[Sc As trans]
+19.4 +7.9 47 +21 +21 комфорт 1012.9 1000.0
18 19.02 штиль 0 4000 м 9/5 1200 м
[Sc As trans]
+18.3 +7.8 50 +18 +18 1015.0 999.2
21 19.02 штиль 0 4000 м 9/4 300 м
[Sc As trans]
+17.2 +7.0 51 +17 +17 1014.8 1000.0
00 20.02 штиль 0 4000 м слаб. дождь 10/5 1200 м
[Sc As trans]
+16.1 +8.1 59 +16 +16 1014.9 998.9 0.0
03 20.02 штиль 0 10 км в посл. час дождь 10/5 1200 м
[Sc As op]
+13.3 +11.6 89 +13 +13 1016.8 1000.7 4
06 20.02 штиль 0 10 км слаб. дождь 10/5 1200 м
[Sc As op]
+14.4 +13.6 95 +14 +15 1017.2 1001.1 5
09 20.02 штиль 0 10 км слаб. дождь 10/5 1200 м
[Sc As op]
+15.0 +15.0 100 +15 +16 1014.0 1000.0 10
12 20.02 штиль 0 10 км в посл. час дождь 10/5 1200 м
[Sc As op]
+15.6 +13.7 88 +15 +16 1013.7 997.7 +16.0 2
15 20.02 штиль 0 4000 м 10/5 1200 м
[Sc As op]
+15.6 +13.7 88 +15 +15 1015.4 1000.0
18 20.02 штиль 0 4000 м 8/8 1200 м
[Sc]
+15.0 +14.1 94 +15 +15 1016.9 1000.9
21 20.02 штиль 0 4000 м 8/8 1200 м
[Sc]
+14.4 +13.6 95 +14 +14 1016.4 1000.3
00 21.02 штиль 0 50 м туман местами ?/? +12.8 +12.1 96 +12 +12 1016.6 1000.5
03 21.02 штиль 0 200 м туман ?/? +11.1 +10.0 93 +10 +10 1018.8 1002.6
06 21.02 штиль 0 10 км ясно +18.3 +5.2 42 +18 +34 опасность
простуды
1019.4 1000.0
12 21.02 СЗ 2 10 км ясно +21.7 +0.7 25 +21 +22 комфорт 1016.2 1000.6 +22.0
15 21.02 СЗ 1 4000 м ясно +16.7 +2.0 37 +18 +18 1018.3 1000.0
18 21.02 штиль 0 4000 м ясно +14.4 +2.0 43 +14 +14 1019.6 1000.0
21 21.02 штиль 0 4000 м ясно +12.8 +1.3 45 +13 +13 1019.2 1000.0
00 22.02 штиль 0 4000 м ясно +10.6 +0.8 51 +10 +10 1018.9 1002.6
03 22.02 СВ 1 10 км ясно +12.8 -0.3 40 +13 +15 1019.7 1003.6
06 22.02 СВ 1 10 км ясно +18.3 +3.7 38 +20 +33 опасность
простуды
1021.9 1000.0
09 22.02 штиль 0 10 км ясно +20.0 -0.4 25 +20 +35 опасность
простуды
1019.9 1004.1
12 22.02 штиль 0 10 км 4/4 1200 м
[Sc]
+21.7 +0.7 25 +21 +22 комфорт 1018.2 1002.6 +22.5
15 22.02 штиль 0 4000 м ясно +17.8 +9.5 58 +18 +18 1018.9 1000.0
18 22.02 штиль 0 4000 м ясно +14.4 +11.7 84 +14 +14 1019.6 1000.0
21 22.02 штиль 0 4000 м ясно +11.7 +9.5 86 +11 +11 1018.8 1002.6
00 23.02 СВ 1 4000 м ясно +11.7 +5.0 63 +12 +12 1017.9 1001.7
03 23.02 штиль 0 10 км ясно +10.0 +6.8 80 +9 +11 1018.4 1002.1 +8.5
06 23.02 штиль 0 10 км ясно +20.0 +6.1 40 +21 +36 комфорт 1018.9 1000.0
09 23.02 штиль 0 10 км ясно +22.8 +3.5 28 +23 +38 комфорт 1015.6 1000.0
12 23.02 ЮЗ 2 10 км ясно +22.8 +3.5 28 +23 +24 комфорт 1013.6 998.1 +23.5
15 23.02 ЮЗ 1 4000 м ясно +18.9 +7.2 47 +20 +20 1014.6 1000.0
18 23.02 штиль 0 4000 м ясно +15.6 +8.7 63 +15 +15 1015.2 1000.0
21 23.02 штиль 0 50 км ?/? +14.4 +8.6 68 +14 +14 1014.6 1000.0
00 24.02 штиль 0 50 км ?/? +12.8 +9.1 78 +12 +12 1012.3 996.2

 

Местоположение метеостанции Сиби (Пакистан): широта 29.55 долгота 67.88 высота над уровнем моря 134 м.

В архиве по умолчанию представлена погода в Сиби за последнюю неделю. Архивные данные за месяц целиком и за предыдущие месяцы, начиная с января 2011 года, Вы можете получить, выбрав интересующий диапазон дат из раскрывающегося списка и нажав кнопку "Ввод!".


*Определитесь, кто Вы:
робот инопланетянин человек

Внимание! Время в таблицах - всемирное. Для получения местного времени необходимо прибавить поправку, которая равна 5 ч.

Смотрите также архив погоды в соседних городах и на ближайших метеорологических станциях:

Погода в Кветте (Пакистан) (124 км)
Погода в Калате (Пакистан) (139 км)
Погода в Джейкобабаде (Пакистан) (150 км)
Погода в Бархане (Пакистан) (181 км)
Погода в Хуздаре (Пакистан) (227 км)
Погода в Рохри (Пакистан) (232 км)
Погода в Зхобе (Пакистан) (252 км)
Погода в Ханпуре (Пакистан) (290 км)
Погода в Кандагаре (Афганистан) (292 км)
Погода в Пад Идан (Пакистан) (301 км)

Пояснения к столбцам:

Ветер - указаны скорость ветра в м/с - средняя за 10 мин, порывы в срок и между сроками (в фигурных скобках) и направление, откуда дует ветер: С - северный, СВ - северо-восточный, В - восточный, ЮВ - юго-восточный, Ю - южный, ЮЗ - юго-западный, З - западный, СЗ - северо-западный.
Видимость - горизонтальная дальность видимости в метрах или километрах. При видимости от 1 до 10 км при отсутствии осадков обычно наблюдается дымка, при ухудшении видимости до 1 км и менее - туман. В сухую погоду видимость может ухудшаться дымом, пылью или мглою.
Явления - указаны атмосферные явления, наблюдавшиеся в срок или в последний час перед сроком; фигурными скобками обозначены явления, наблюдавшиеся между сроками (за 1-3 часа до срока); квадратными скобками обозначены град или гололедные отложения с указанием их диаметра в мм.
Облачность - указаны через наклонную черту общая и нижняя облачность в баллах и высота нижней границы облаков в метрах; квадратными скобками обозначены формы облаков: Ci - перистые, Cs - перисто-слоистые, Cc - перисто-кучевые, Ac - высококучевые, As - высокослоистые, Sc - слоисто-кучевые, Ns - слоисто-дождевые, Cu - кучевые, Cb - кучево-дождевые. Подробнее классификацию облаков см. в Атласе облаков (PDF).
T - Температура воздуха - температура, измеренная на высоте 2 м над землей.
Td - Температура точки росы - температура, при понижении до которой содержащийся в воздухе водяной пар достигнет насыщения.
f - Относительная влажность воздуха - влажноcть воздуха, измеренная на высоте 2 м над землей.
Te - Эффективная температура - температура, которую ощущает одетый по сезону человек в тени. Характеристика душности погоды. При расчете учитывается влияние влажности воздуха и скорости ветра на теплоощущения человека.
Tes - Эффективная температура на солнце - температура, которую ощущает человек, с поправкой на солнечный нагрев. Характеристика знойности погоды. Зависит от высоты солнца над горизонтом, облачности и скорости ветра. Ночью, в пасмурную погоду, а также при ветре 12 м/с и более поправка равна нулю.
P - Атмосферное давление - приведенное к уровню моря атмосферное давление.
Po - Атмосферное давление - измеренное на уровне метеостанции атмосферное давление.
Tmin - Минимальная температура - минимум температуры воздуха на высоте 2 м над землей.
Tmax - Максимальная температура - максимум температуры воздуха на высоте 2 м над землей.
R - Количество осадков - Количество выпавших осадков за период времени, мм. При наведении курсора мыши на число - период времени, за который выпало указанное количество осадков.
R24 - Количество осадков - Количество выпавших осадков за 24 часа, мм.
S - Снежный покров - Высота снежного покрова, см. При наведении курсора мыши на число - состояние снежного покрова и степень покрытия местности в баллах.